Time,TemperatureF,DewpointF,PressureIn,WindDirection,WindDirectionDegrees,WindSpeedMPH,WindSpeedGustMPH,Humidity,HourlyPrecipIn,Conditions,Clouds,dailyrainin,SolarRadiationWatts/m^2,SoftwareType,DateUTC
2013-04-25 00:11:00,40.0,19.0,-100.00,South,186,7.0,17.0,43,0.00,,,0.00,0.000000,,2013-04-25 07:11:00,
2013-04-25 00:21:00,40.0,19.0,-100.00,South,186,7.0,17.0,43,0.00,,,0.00,0.000000,,2013-04-25 07:21:00,
2013-04-25 00:31:00,40.0,19.0,-100.00,South,186,7.0,17.0,43,0.00,,,0.00,0.000000,,2013-04-25 07:31:00,
2013-04-25 00:42:00,40.0,19.0,-100.00,South,186,7.0,17.0,43,0.00,,,0.00,0.000000,,2013-04-25 07:42:00,
2013-04-25 00:52:00,40.0,19.0,-100.00,South,186,7.0,17.0,43,0.00,,,0.00,0.000000,,2013-04-25 07:52:00,
2013-04-25 01:21:00,39.0,18.0,-100.00,South,177,5.0,10.0,42,0.00,,,0.00,0.000000,,2013-04-25 08:21:00,
2013-04-25 01:31:00,39.0,18.0,-100.00,South,177,5.0,10.0,42,0.00,,,0.00,0.000000,,2013-04-25 08:31:00,
2013-04-25 01:41:00,39.0,18.0,-100.00,South,177,5.0,10.0,42,0.00,,,0.00,0.000000,,2013-04-25 08:41:00,
2013-04-25 01:51:00,39.0,18.0,-100.00,South,177,5.0,10.0,42,0.00,,,0.00,0.000000,,2013-04-25 08:51:00,
2013-04-25 02:21:00,38.0,14.0,-100.00,WSW,238,1.0,7.0,37,0.00,,,0.00,0.000000,,2013-04-25 09:21:00,
2013-04-25 02:33:00,38.0,14.0,-100.00,WSW,238,1.0,7.0,37,0.00,,,0.00,0.000000,,2013-04-25 09:33:00,
2013-04-25 02:42:00,38.0,14.0,-100.00,WSW,238,1.0,7.0,37,0.00,,,0.00,0.000000,,2013-04-25 09:42:00,
2013-04-25 02:52:00,38.0,14.0,-100.00,WSW,238,1.0,7.0,37,0.00,,,0.00,0.000000,,2013-04-25 09:52:00,
2013-04-25 03:12:00,38.0,14.0,-100.00,NW,306,2.0,9.0,37,0.00,,,0.00,0.000000,,2013-04-25 10:12:00,
2013-04-25 03:22:00,38.0,14.0,-100.00,NW,306,2.0,9.0,37,0.00,,,0.00,0.000000,,2013-04-25 10:22:00,
2013-04-25 03:32:00,38.0,14.0,-100.00,NW,306,2.0,9.0,37,0.00,,,0.00,0.000000,,2013-04-25 10:32:00,
2013-04-25 03:42:00,38.0,14.0,-100.00,NW,306,2.0,9.0,37,0.00,,,0.00,0.000000,,2013-04-25 10:42:00,
2013-04-25 03:52:00,38.0,14.0,-100.00,NW,306,2.0,9.0,37,0.00,,,0.00,0.000000,,2013-04-25 10:52:00,
2013-04-25 04:22:00,38.0,20.0,-100.00,NW,315,3.0,9.0,47,0.00,,,0.00,0.000000,,2013-04-25 11:22:00,
2013-04-25 04:32:00,38.0,20.0,-100.00,NW,315,3.0,9.0,47,0.00,,,0.00,0.000000,,2013-04-25 11:32:00,
2013-04-25 04:42:00,38.0,20.0,-100.00,NW,315,3.0,9.0,47,0.00,,,0.00,0.000000,,2013-04-25 11:42:00,
2013-04-25 04:51:00,38.0,20.0,-100.00,NW,315,3.0,9.0,47,0.00,,,0.00,0.000000,,2013-04-25 11:51:00,
2013-04-25 05:12:00,38.0,22.0,-100.00,WNW,285,4.0,7.0,51,0.00,,,0.00,0.000000,,2013-04-25 12:12:00,
2013-04-25 05:21:00,38.0,22.0,-100.00,WNW,285,4.0,7.0,51,0.00,,,0.00,0.000000,,2013-04-25 12:21:00,
2013-04-25 05:31:00,38.0,22.0,-100.00,WNW,285,4.0,7.0,51,0.00,,,0.00,0.000000,,2013-04-25 12:31:00,
2013-04-25 05:41:00,38.0,22.0,-100.00,WNW,285,4.0,7.0,51,0.00,,,0.00,0.000000,,2013-04-25 12:41:00,
2013-04-25 05:51:00,38.0,22.0,-100.00,WNW,285,4.0,7.0,51,0.00,,,0.00,0.000000,,2013-04-25 12:51:00,
2013-04-25 06:21:00,37.0,22.0,-100.00,WSW,244,3.0,10.0,55,0.00,,,0.00,0.000000,,2013-04-25 13:21:00,
2013-04-25 06:31:00,37.0,22.0,-100.00,WSW,244,3.0,10.0,55,0.00,,,0.00,0.000000,,2013-04-25 13:31:00,
2013-04-25 06:42:00,37.0,22.0,-100.00,WSW,244,3.0,10.0,55,0.00,,,0.00,0.000000,,2013-04-25 13:42:00,
2013-04-25 06:52:00,37.0,22.0,-100.00,WSW,244,3.0,10.0,55,0.00,,,0.00,0.000000,,2013-04-25 13:52:00,
2013-04-25 07:21:00,40.0,22.0,-100.00,East,100,5.0,10.0,49,0.00,,,0.00,20.000000,,2013-04-25 14:21:00,
2013-04-25 07:32:00,40.0,22.0,-100.00,East,100,5.0,10.0,49,0.00,,,0.00,20.000000,,2013-04-25 14:32:00,
2013-04-25 07:42:00,40.0,22.0,-100.00,East,100,5.0,10.0,49,0.00,,,0.00,20.000000,,2013-04-25 14:42:00,
2013-04-25 07:51:00,40.0,22.0,-100.00,East,100,5.0,10.0,49,0.00,,,0.00,20.000000,,2013-04-25 14:51:00,
2013-04-25 08:21:00,45.0,24.0,-100.00,East,85,5.0,10.0,43,0.00,,,0.00,185.000000,,2013-04-25 15:21:00,
2013-04-25 08:33:00,45.0,24.0,-100.00,East,85,5.0,10.0,43,0.00,,,0.00,185.000000,,2013-04-25 15:33:00,
2013-04-25 08:42:00,45.0,24.0,-100.00,East,85,5.0,10.0,43,0.00,,,0.00,185.000000,,2013-04-25 15:42:00,
2013-04-25 08:52:00,45.0,24.0,-100.00,East,85,5.0,10.0,43,0.00,,,0.00,185.000000,,2013-04-25 15:52:00,
2013-04-25 09:13:00,48.0,22.0,-100.00,ESE,103,7.0,12.0,36,0.00,,,0.00,504.000000,,2013-04-25 16:13:00,
2013-04-25 09:24:00,48.0,22.0,-100.00,ESE,103,7.0,12.0,36,0.00,,,0.00,504.000000,,2013-04-25 16:24:00,
2013-04-25 09:32:00,48.0,22.0,-100.00,ESE,103,7.0,12.0,36,0.00,,,0.00,504.000000,,2013-04-25 16:32:00,
2013-04-25 09:42:00,48.0,22.0,-100.00,ESE,103,7.0,12.0,36,0.00,,,0.00,504.000000,,2013-04-25 16:42:00,
2013-04-25 09:52:00,48.0,22.0,-100.00,ESE,103,7.0,12.0,36,0.00,,,0.00,504.000000,,2013-04-25 16:52:00,
2013-04-25 09:53:00,52.0,22.0,-100.00,East,96,4.0,11.0,31,0.00,,,0.00,710.000000,,2013-04-25 16:53:00,
2013-04-25 10:11:00,52.0,22.0,-100.00,East,96,4.0,11.0,31,0.00,,,0.00,710.000000,,2013-04-25 17:11:00,
2013-04-25 10:22:00,52.0,22.0,-100.00,East,96,4.0,11.0,31,0.00,,,0.00,710.000000,,2013-04-25 17:22:00,
2013-04-25 10:32:00,52.0,22.0,-100.00,East,96,4.0,11.0,31,0.00,,,0.00,710.000000,,2013-04-25 17:32:00,
2013-04-25 10:42:00,52.0,22.0,-100.00,East,96,4.0,11.0,31,0.00,,,0.00,710.000000,,2013-04-25 17:42:00,
2013-04-25 11:11:00,54.0,20.0,-100.00,ENE,65,4.0,13.0,26,0.00,,,0.00,872.000000,,2013-04-25 18:11:00,
2013-04-25 11:21:00,54.0,20.0,-100.00,ENE,65,4.0,13.0,26,0.00,,,0.00,872.000000,,2013-04-25 18:21:00,
2013-04-25 11:32:00,54.0,20.0,-100.00,ENE,65,4.0,13.0,26,0.00,,,0.00,872.000000,,2013-04-25 18:32:00,
2013-04-25 11:42:00,54.0,20.0,-100.00,ENE,65,4.0,13.0,26,0.00,,,0.00,872.000000,,2013-04-25 18:42:00,
2013-04-25 11:52:00,54.0,20.0,-100.00,ENE,65,4.0,13.0,26,0.00,,,0.00,872.000000,,2013-04-25 18:52:00,
2013-04-25 12:12:00,55.0,19.0,-100.00,East,91,6.0,10.0,24,0.00,,,0.00,977.000000,,2013-04-25 19:12:00,
2013-04-25 12:21:00,55.0,19.0,-100.00,East,91,6.0,10.0,24,0.00,,,0.00,977.000000,,2013-04-25 19:21:00,
2013-04-25 12:31:00,55.0,19.0,-100.00,East,91,6.0,10.0,24,0.00,,,0.00,977.000000,,2013-04-25 19:31:00,
2013-04-25 12:41:00,55.0,19.0,-100.00,East,91,6.0,10.0,24,0.00,,,0.00,977.000000,,2013-04-25 19:41:00,
2013-04-25 12:52:00,55.0,19.0,-100.00,East,91,6.0,10.0,24,0.00,,,0.00,977.000000,,2013-04-25 19:52:00,
2013-04-25 13:22:00,58.0,19.0,-100.00,NNE,27,4.0,10.0,22,0.00,,,0.00,1019.000000,,2013-04-25 20:22:00,
2013-04-25 13:42:00,58.0,19.0,-100.00,NNE,27,4.0,10.0,22,0.00,,,0.00,1019.000000,,2013-04-25 20:42:00,
2013-04-25 13:51:00,58.0,19.0,-100.00,NNE,27,4.0,10.0,22,0.00,,,0.00,1019.000000,,2013-04-25 20:51:00,
2013-04-25 14:11:00,58.0,20.0,-100.00,NE,43,3.0,8.0,23,0.00,,,0.00,999.000000,,2013-04-25 21:11:00,
2013-04-25 14:21:00,58.0,20.0,-100.00,NE,43,3.0,8.0,23,0.00,,,0.00,999.000000,,2013-04-25 21:21:00,
2013-04-25 14:33:00,58.0,20.0,-100.00,NE,43,3.0,8.0,23,0.00,,,0.00,999.000000,,2013-04-25 21:33:00,
2013-04-25 14:42:00,58.0,20.0,-100.00,NE,43,3.0,8.0,23,0.00,,,0.00,999.000000,,2013-04-25 21:42:00,
2013-04-25 14:52:00,58.0,20.0,-100.00,NE,43,3.0,8.0,23,0.00,,,0.00,999.000000,,2013-04-25 21:52:00,
2013-04-25 15:22:00,58.0,21.0,-100.00,ENE,60,3.0,10.0,24,0.00,,,0.00,913.000000,,2013-04-25 22:22:00,
2013-04-25 15:32:00,58.0,21.0,-100.00,ENE,60,3.0,10.0,24,0.00,,,0.00,913.000000,,2013-04-25 22:32:00,
2013-04-25 15:42:00,58.0,21.0,-100.00,ENE,60,3.0,10.0,24,0.00,,,0.00,913.000000,,2013-04-25 22:42:00,
2013-04-25 15:52:00,58.0,21.0,-100.00,ENE,60,3.0,10.0,24,0.00,,,0.00,913.000000,,2013-04-25 22:52:00,
2013-04-25 16:12:00,53.0,19.0,-100.00,East,95,4.0,9.0,26,0.00,,,0.00,304.000000,,2013-04-25 23:12:00,
2013-04-25 16:22:00,53.0,19.0,-100.00,East,95,4.0,9.0,26,0.00,,,0.00,304.000000,,2013-04-25 23:22:00,
2013-04-25 16:32:00,53.0,19.0,-100.00,East,95,4.0,9.0,26,0.00,,,0.00,304.000000,,2013-04-25 23:32:00,
2013-04-25 16:41:00,53.0,19.0,-100.00,East,95,4.0,9.0,26,0.00,,,0.00,304.000000,,2013-04-25 23:41:00,
2013-04-25 16:52:00,53.0,19.0,-100.00,East,95,4.0,9.0,26,0.00,,,0.00,304.000000,,2013-04-25 23:52:00,
2013-04-25 17:21:00,49.0,16.0,-100.00,NNE,23,3.0,6.0,27,0.00,,,0.00,179.000000,,2013-04-26 00:21:00,
2013-04-25 18:11:00,46.0,18.0,-100.00,NNE,20,3.0,6.0,32,0.00,,,0.00,49.000000,,2013-04-26 01:11:00,
2013-04-25 18:21:00,46.0,18.0,-100.00,NNE,20,3.0,6.0,32,0.00,,,0.00,49.000000,,2013-04-26 01:21:00,
2013-04-25 18:31:00,46.0,18.0,-100.00,NNE,20,3.0,6.0,32,0.00,,,0.00,49.000000,,2013-04-26 01:31:00,
2013-04-25 18:41:00,46.0,18.0,-100.00,NNE,20,3.0,6.0,32,0.00,,,0.00,49.000000,,2013-04-26 01:41:00,
2013-04-25 18:52:00,46.0,18.0,-100.00,NNE,20,3.0,6.0,32,0.00,,,0.00,49.000000,,2013-04-26 01:52:00,
2013-04-25 19:11:00,44.0,19.0,-100.00,North,359,1.0,5.0,36,0.00,,,0.00,22.000000,,2013-04-26 02:11:00,
2013-04-25 19:21:00,44.0,19.0,-100.00,North,359,1.0,5.0,36,0.00,,,0.00,22.000000,,2013-04-26 02:21:00,
2013-04-25 19:32:00,44.0,19.0,-100.00,North,359,1.0,5.0,36,0.00,,,0.00,22.000000,,2013-04-26 02:32:00,
2013-04-25 20:21:00,45.0,19.0,-100.00,North,1,4.0,8.0,35,0.00,,,0.00,5.000000,,2013-04-26 03:21:00,
2013-04-25 20:33:00,45.0,19.0,-100.00,North,1,4.0,8.0,35,0.00,,,0.00,5.000000,,2013-04-26 03:33:00,
2013-04-25 20:43:00,45.0,19.0,-100.00,North,1,4.0,8.0,35,0.00,,,0.00,5.000000,,2013-04-26 03:43:00,
2013-04-25 20:52:00,45.0,19.0,-100.00,North,1,4.0,8.0,35,0.00,,,0.00,5.000000,,2013-04-26 03:52:00,
2013-04-25 21:12:00,44.0,11.0,-100.00,NNW,332,3.0,10.0,26,0.00,,,0.00,0.000000,,2013-04-26 04:12:00,
2013-04-25 21:22:00,44.0,11.0,-100.00,NNW,332,3.0,10.0,26,0.00,,,0.00,0.000000,,2013-04-26 04:22:00,
2013-04-25 21:32:00,44.0,11.0,-100.00,NNW,332,3.0,10.0,26,0.00,,,0.00,0.000000,,2013-04-26 04:32:00,
2013-04-25 21:43:00,44.0,11.0,-100.00,NNW,332,3.0,10.0,26,0.00,,,0.00,0.000000,,2013-04-26 04:43:00,
2013-04-25 21:52:00,44.0,11.0,-100.00,NNW,332,3.0,10.0,26,0.00,,,0.00,0.000000,,2013-04-26 04:52:00,
2013-04-25 22:12:00,42.0,12.0,-100.00,WNW,282,2.0,5.0,29,0.00,,,0.00,0.000000,,2013-04-26 05:12:00,
2013-04-25 22:22:00,42.0,12.0,-100.00,WNW,282,2.0,5.0,29,0.00,,,0.00,0.000000,,2013-04-26 05:22:00,
2013-04-25 22:32:00,42.0,12.0,-100.00,WNW,282,2.0,5.0,29,0.00,,,0.00,0.000000,,2013-04-26 05:32:00,
2013-04-25 22:42:00,42.0,12.0,-100.00,WNW,282,2.0,5.0,29,0.00,,,0.00,0.000000,,2013-04-26 05:42:00,
2013-04-25 22:52:00,42.0,12.0,-100.00,WNW,282,2.0,5.0,29,0.00,,,0.00,0.000000,,2013-04-26 05:52:00,
2013-04-25 23:21:00,43.0,14.0,-100.00,SSE,168,4.0,11.0,30,0.00,,,0.00,0.000000,,2013-04-26 06:21:00,
2013-04-25 23:32:00,43.0,14.0,-100.00,SSE,168,4.0,11.0,30,0.00,,,0.00,0.000000,,2013-04-26 06:32:00,
2013-04-25 23:41:00,43.0,14.0,-100.00,SSE,168,4.0,11.0,30,0.00,,,0.00,0.000000,,2013-04-26 06:41:00,
2013-04-25 23:51:00,43.0,14.0,-100.00,SSE,168,4.0,11.0,30,0.00,,,0.00,0.000000,,2013-04-26 06:51:00,